Voltar ao catálogo

STARLINK-11694

AtivoComunicaçõesVLEO
NORAD 64243·PAYLOAD·🇺🇸 United States

Lançado Jun 3, 2025 de Cape Canaveral Space Force Station

Loading…

Próximas Passagens (próximas 24 horas)

TLE

AtualizadoSource: CelesTrak SupGP

Época: Sep 14, 2026, 22:46 UTC

1 64243C 25119L   26257.94909722  .00427860  00000+0  77229-3 0  2574
2 64243  42.9827 138.5742 0016458 242.8759 260.1412 16.00085540    10

Acompanhe STARLINK-11694 em tempo real com AllMySat

Download on the App Store